Date String (YYYY-MM-DD hh:mm:ss) UTC,Instrument flags,Ambient pressure (hPa),Sample flow (lpm),Bypass flow (lpm),Sample temperature (°C),Ambient temperature (°C),ASC tube jacket temperature (°C),LED temperature (°C),Box temperature (°C),Sample RH (%),Span deviation,Mass concentration (μg/m³),Mass concentration (μg/m³),Mass concentration (μg/m³)
DateTimeUTC,F1_M11,P_M11,Q1_M11,Q2_M11,T1_M11,T2_M11,T3_M11,T4_M11,T5_M11,U1_M11,ZSPAN_M11,X0_M11,X2_M11,X1_M11
2023-05-27 19:00:00,,0826.8,5.01,0.00,29.3,27.9,00.0,37.6,31.0,31.3,-000.2,0008.85,0004.86,0004.17
2023-05-27 19:01:00,,0826.8,5.00,0.00,29.4,28.0,00.0,37.7,31.0,31.3,-000.1,0009.12,0005.06,0004.29
2023-05-27 19:02:00,,0826.8,5.00,0.00,29.4,28.0,00.0,37.7,31.1,31.3,0000.8,0009.24,0005.14,0004.39
2023-05-27 19:03:00,,0826.8,5.00,0.00,29.4,28.1,00.0,37.7,31.1,31.8,0000.8,0009.74,0005.18,0004.46
2023-05-27 19:04:00,,0826.8,5.00,0.00,29.4,28.2,00.0,37.7,31.1,31.2,0000.4,0009.89,0005.29,0004.56
2023-05-27 19:05:00,,0826.8,5.00,0.00,29.5,28.2,00.0,37.7,31.2,31.9,0001.3,0009.98,0005.37,0004.62
2023-05-27 19:06:00,,0826.8,5.00,0.00,29.5,28.3,00.0,37.8,31.2,31.8,0001.3,0010.09,0005.45,0004.70
2023-05-27 19:07:00,,0826.8,5.00,0.00,29.5,28.3,00.0,37.8,31.2,31.9,0000.9,0009.94,0005.49,0004.77
2023-05-27 19:08:00,,0826.7,4.99,0.00,29.5,28.0,00.0,37.8,31.2,31.7,0001.0,0009.89,0005.54,0004.81
2023-05-27 19:09:00,,0826.6,5.00,0.00,29.5,26.6,00.0,37.7,31.1,32.1,0001.5,0010.12,0005.58,0004.84
2023-05-27 19:10:00,,0826.6,5.00,0.00,29.5,25.9,00.0,37.6,30.9,30.9,0001.9,0010.87,0005.64,0004.88
2023-05-27 19:11:00,,0826.6,5.01,0.00,29.4,25.9,00.0,37.6,30.8,30.6,0001.7,0010.78,0005.58,0004.86
2023-05-27 19:12:00,,0826.6,5.01,0.00,29.3,26.2,00.0,37.6,30.8,31.0,0000.0,0010.85,0005.50,0004.83
2023-05-27 19:13:00,,0826.6,4.99,0.00,29.3,26.5,00.0,37.6,30.8,29.9,0001.7,0011.12,0005.52,0004.85
2023-05-27 19:14:00,,0826.6,4.99,0.00,29.3,26.8,00.0,37.6,30.9,30.5,0002.1,0011.38,0005.60,0004.91
2023-05-27 19:15:00,,0826.6,5.00,0.00,29.3,27.0,00.0,37.7,30.9,31.5,0002.3,0011.55,0005.60,0004.93
2023-05-27 19:16:00,,0826.6,5.00,0.00,29.3,27.2,00.0,37.7,30.9,31.8,0002.1,0011.47,0005.60,0004.96
2023-05-27 19:17:00,,0826.5,5.00,0.00,29.3,27.4,00.0,37.7,31.0,31.7,0002.0,0011.71,0005.75,0005.06
2023-05-27 19:18:00,,0826.6,5.01,0.00,29.3,27.6,00.0,37.7,31.0,31.8,0002.0,0011.88,0005.87,0005.16
2023-05-27 19:19:00,,0826.6,5.00,0.00,29.3,27.7,00.0,37.7,31.0,31.8,0001.8,0012.00,0005.99,0005.28
2023-05-27 19:20:00,,0826.6,4.99,0.00,29.3,27.7,00.0,37.7,31.0,31.6,0001.4,0011.93,0006.13,0005.43
2023-05-27 19:21:00,,0826.6,5.00,0.00,29.4,27.8,00.0,37.7,31.0,31.8,0001.2,0011.45,0006.25,0005.56
2023-05-27 19:22:00,,0826.6,5.01,0.00,29.4,27.9,00.0,37.7,31.1,32.1,0001.0,0011.52,0006.35,0005.67
2023-05-27 19:23:00,,0826.6,5.00,0.00,29.4,28.0,00.0,37.7,31.1,31.6,0001.2,0011.52,0006.52,0005.83
2023-05-27 19:24:00,,0826.6,4.99,0.00,29.4,28.0,00.0,37.7,31.1,31.6,0000.7,0011.35,0006.70,0005.99
2023-05-27 19:25:00,,0826.6,4.99,0.00,29.5,28.1,00.0,37.8,31.1,31.5,0000.5,0011.28,0006.83,0006.16
2023-05-27 19:26:00,,0826.6,5.00,0.00,29.5,28.2,00.0,37.8,31.2,31.3,0000.7,0012.19,0007.02,0006.36
2023-05-27 19:27:00,,0826.6,5.00,0.00,29.5,28.3,00.0,37.8,31.2,31.4,0000.9,0012.53,0007.23,0006.54
2023-05-27 19:28:00,,0826.8,5.00,0.00,29.5,28.2,00.0,37.8,31.2,31.4,0000.7,0012.62,0007.30,0006.64
2023-05-27 19:29:00,,0826.8,4.99,0.00,29.5,27.0,00.0,37.7,31.1,31.1,0000.7,0012.71,0007.36,0006.71
2023-05-27 19:30:00,,0826.8,5.01,0.00,29.5,25.9,00.0,37.7,31.0,31.0,0000.8,0012.86,0007.49,0006.82
2023-05-27 19:31:00,,0826.8,5.01,0.00,29.4,25.8,00.0,37.6,30.8,31.1,0001.1,0013.13,0007.61,0006.92
2023-05-27 19:32:00,,0826.8,5.00,0.00,29.4,26.0,00.0,37.6,30.8,31.3,0001.2,0013.43,0007.75,0007.00
2023-05-27 19:33:00,,0826.7,5.00,0.00,29.3,26.3,00.0,37.7,30.8,31.5,0001.5,0013.46,0007.83,0007.08
2023-05-27 19:34:00,,0826.6,5.01,0.00,29.3,26.7,00.0,37.7,30.9,31.6,0001.2,0013.88,0007.85,0007.11
2023-05-27 19:35:00,,0826.6,5.00,0.00,29.3,26.9,00.0,37.7,30.9,31.7,0001.7,0014.48,0007.94,0007.19
2023-05-27 19:36:00,,0826.6,4.99,0.00,29.3,27.2,00.0,37.7,31.0,32.2,0001.7,0014.57,0007.99,0007.23
2023-05-27 19:37:00,,0826.6,4.99,0.00,29.3,27.4,00.0,37.7,31.0,33.0,0001.7,0014.50,0008.02,0007.21
2023-05-27 19:38:00,,0826.6,5.00,0.00,29.4,27.6,00.0,37.7,31.0,32.4,0001.3,0014.50,0008.00,0007.18
2023-05-27 19:39:00,,0826.6,5.01,0.00,29.4,27.8,00.0,37.7,31.1,33.0,0001.4,0014.44,0007.99,0007.19
2023-05-27 19:40:00,,0826.6,5.01,0.00,29.4,27.9,00.0,37.7,31.1,33.3,0001.4,0014.40,0007.99,0007.20
2023-05-27 19:41:00,,0826.6,5.01,0.00,29.4,28.0,00.0,37.7,31.1,32.8,0001.2,0014.48,0007.97,0007.15
2023-05-27 19:42:00,,0826.6,5.00,0.00,29.5,28.1,00.0,37.7,31.2,31.6,0001.2,0014.31,0007.94,0007.13
2023-05-27 19:43:00,,0826.6,5.01,0.00,29.5,28.2,00.0,37.8,31.2,32.9,0001.2,0014.09,0007.85,0007.10
2023-05-27 19:44:00,,0826.6,5.00,0.00,29.5,28.2,00.0,37.8,31.2,32.0,0000.7,0014.12,0007.81,0007.03
2023-05-27 19:45:00,,0826.6,5.00,0.00,29.6,28.3,00.0,37.8,31.3,32.5,0000.8,0013.91,0007.80,0006.95
2023-05-27 19:46:00,,0826.6,5.00,0.00,29.6,28.3,00.0,37.8,31.3,32.5,0000.7,0013.99,0007.69,0006.83
2023-05-27 19:47:00,,0826.6,4.98,0.00,29.6,27.2,00.0,37.8,31.2,32.1,0000.7,0013.49,0007.63,0006.76
2023-05-27 19:48:00,,0826.5,5.00,0.00,29.5,25.9,00.0,37.7,31.0,31.4,0000.6,0012.50,0007.55,0006.73
2023-05-27 19:49:00,,0826.4,5.01,0.00,29.5,25.7,00.0,37.6,30.9,31.4,0000.7,0012.61,0007.55,0006.73
2023-05-27 19:50:00,,0826.4,5.01,0.00,29.4,25.9,00.0,37.7,30.8,32.3,0000.6,0012.66,0007.56,0006.69
2023-05-27 19:51:00,,0826.4,5.00,0.00,29.4,26.3,00.0,37.7,30.8,31.7,0000.5,0012.73,0007.58,0006.68
2023-05-27 19:52:00,,0826.3,5.00,0.00,29.3,26.6,00.0,37.7,30.9,31.7,0000.6,0012.71,0007.57,0006.68
2023-05-27 19:53:00,,0826.3,5.00,0.00,29.3,26.9,00.0,37.7,30.9,31.3,0000.6,0012.69,0007.57,0006.68
2023-05-27 19:54:00,,0826.2,5.00,0.00,29.3,27.1,00.0,37.7,31.0,31.5,0001.0,0012.88,0007.60,0006.71
2023-05-27 19:55:00,,0826.2,5.00,0.00,29.4,27.4,00.0,37.7,31.0,31.4,0001.2,0013.24,0007.67,0006.79
2023-05-27 19:56:00,,0826.2,4.99,0.00,29.4,27.6,00.0,37.7,31.0,32.2,0001.4,0013.09,0007.71,0006.88
2023-05-27 19:57:00,,0826.2,4.99,0.00,29.4,27.7,00.0,37.7,31.1,31.8,0001.3,0012.48,0007.81,0006.99
2023-05-27 19:58:00,,0826.3,5.00,0.00,29.4,27.8,00.0,37.7,31.1,31.6,0001.3,0012.72,0007.89,0007.07
2023-05-27 19:59:00,,0826.2,5.01,0.00,29.4,27.9,00.0,37.7,31.1,30.6,0001.4,0012.79,0007.97,0007.15
